Meteopurmerend
purmerend
Purmerend - Baaienwijk



My webcam  My webcam


Onweer radar Meer informatie blitzortung!


Regen radar Meer informatie rain snow radar


Bezoek onze andere website:

CandyAppleRed WebdesignWebdesign Purmerend Candy Apple Red

MeteopurmerendBlog

Template documentation
and downloads



Het weer levert geen direct gevaar op.    Er zijn geen waarschuwingen afgegeven.

15 daagse weersverwachting Hengelo (NL)

  • Overzicht
  • Per uur
  • 15 dagen
  • Extra
  • Vergelijk
  • Kaarten
  • Dagkaart
  • Meer »
  • Info
  • Statistieken
  • Directe link
    Temp 6h Neerslag Wind  
 05:53     21:31    Daglengte: 15:38 Vandaag
08:00
16°
 
5
14:00
21°
 
8
20:00
19°
 
5
 05:54     21:29    Daglengte: 15:35 Morgen
02:00
16°
 
6
08:00
15°
 
7
14:00
19°
 
8
20:00
18°
 
5
 05:56     21:27    Daglengte: 15:31 Vrijdag 30 Jul
02:00
15°
 
4
08:00
15°
 
3
14:00
22°
2.2 mm
4
20:00
20°
5.5 mm
3
 05:57     21:26    Daglengte: 15:29 Zaterdag 31 Jul
02:00
15°
21.5 mm
5
Locatie info
Region: Gelderland
Latitude: 52.0514°N
Longitude: 6.3090°E
18 masl
Postcode: 7551 AA
Temp/Neerslag /Baro Onweer/Dauwpunt
    Temp Baro 1h Neerslag Dauwpunt Wind UV Bewolking  
 05:53     21:31    Daglengte: 15:38 Vandaag
08:00
16°
1009.2 hPa   14.8°
5
Windvlaag: 7.3 m/s
81%
09:00
17°
1009.1 hPa   14.8°
5
Windvlaag: 8 m/s
45%
10:00
18°
1009.0 hPa   14.5°
5
Windvlaag: 8.8 m/s
16%
11:00
19°
1009.0 hPa   13.4°
6
Windvlaag: 9.7 m/s
20%
12:00
20°
1008.8 hPa   13.0°
7
Windvlaag: 10.7 m/s
11%
13:00
21°
1008.7 hPa   12.6°
7
Windvlaag: 10.6 m/s
13%
14:00
21°
1008.8 hPa   12.3°
8
Windvlaag: 10.2 m/s
46%
15:00
20°
1008.9 hPa
35%
12.3°
7
Windvlaag: 9.9 m/s
16%
16:00
21°
1008.8 hPa   12.9°
7
Windvlaag: 10.5 m/s
49%
17:00
20°
1008.7 hPa
13%
12.4°
8
Windvlaag: 10.1 m/s
17%
18:00
19°
1009.0 hPa
45%
12.6°
7
Windvlaag: 8.8 m/s
28%
19:00
19°
1009.2 hPa
74%
12.8°
6
Windvlaag: 7.8 m/s
14%
20:00
19°
1009.0 hPa
26%
12.8°
5
Windvlaag: 7.5 m/s
10%
21:00
18°
1009.1 hPa
57%
12.9°
5
Windvlaag: 7.6 m/s
14%
22:00
17°
1009.1 hPa
14%
12.1°
5
Windvlaag: 8.7 m/s
5%
23:00
17°
1009.1 hPa
15%
12.1°
5
Windvlaag: 9.5 m/s
7%
 05:54     21:29    Daglengte: 15:35 Morgen
00:00
16°
1009.0 hPa
14%
11.6°
6
Windvlaag: 9.9 m/s
0%
01:00
16°
1008.9 hPa
14%
11.5°
6
Windvlaag: 10.1 m/s
6%
02:00
16°
1008.6 hPa
14%
11.0°
6
Windvlaag: 10.1 m/s
25%
03:00
15°
1008.5 hPa
14%
10.9°
6
Windvlaag: 9.8 m/s
10%
04:00
15°
1008.5 hPa
14%
10.9°
6
Windvlaag: 9.8 m/s
10%
05:00
15°
1008.5 hPa
14%
10.9°
6
Windvlaag: 9.2 m/s
46%
06:00
15°
1008.8 hPa
14%
11.0°
6
Windvlaag: 9 m/s
30%
07:00
15°
1009.1 hPa
14%
11.2°
6
Windvlaag: 9.6 m/s
38%
08:00
15°
1009.3 hPa
14%
11.6°
7
Windvlaag: 10.8 m/s
14%
09:00
16°
1009.5 hPa
14%
11.3°
7
Windvlaag: 11.1 m/s
33%
10:00
17°
1009.7 hPa
14%
11.1°
8
Windvlaag: 10.7 m/s
15%
11:00
17°
1010.1 hPa
14%
11.0°
8
Windvlaag: 10 m/s
18%
12:00
18°
1010.1 hPa
14%
10.9°
8
Windvlaag: 9.7 m/s
16%
13:00
18°
1010.4 hPa
14%
10.8°
8
Windvlaag: 9.1 m/s
17%
14:00
19°
1010.4 hPa
18%
11.5°
8
Windvlaag: 8.1 m/s
18%
15:00
19°
1010.4 hPa
14%
12.1°
8
Windvlaag: 7.7 m/s
13%
16:00
20°
1010.3 hPa
14%
12.0°
8
Windvlaag: 7.8 m/s
10%
17:00
20°
1010.3 hPa
14%
14.2°
7
Windvlaag: 7.7 m/s
9%
18:00
20°
1010.2 hPa
14%
13.4°
7
Windvlaag: 7 m/s
16%
19:00
19°
1010.3 hPa
14%
13.0°
6
Windvlaag: 6 m/s
17%
20:00
18°
1010.3 hPa
14%
12.5°
5
Windvlaag: 5.9 m/s
20%
21:00
17°
1010.4 hPa
14%
13.2°
4
Windvlaag: 6.3 m/s
54%
22:00
16°
1010.5 hPa
14%
12.5°
3
Windvlaag: 5.8 m/s
43%
23:00
15°
1010.6 hPa
14%
11.7°
3
Windvlaag: 5.4 m/s
39%
 05:56     21:27    Daglengte: 15:31 Vrijdag 30 Jul
00:00
15°
1010.5 hPa
14%
10.7°
4
Windvlaag: 6 m/s
18%
01:00
15°
1010.5 hPa
14%
10.0°
4
Windvlaag: 6.2 m/s
32%
02:00
15°
1010.2 hPa
15%
10.0°
4
Windvlaag: 6.9 m/s
44%
03:00
14°
1010.1 hPa
20%
10.1°
4
Windvlaag: 6.9 m/s
43%
04:00
14°
1009.8 hPa
14%
10.2°
3
Windvlaag: 6.1 m/s
18%
05:00
14°
1008.7 hPa
21%
10.0°
3
Windvlaag: 5.6 m/s
50%
06:00
13°
1008.7 hPa
21%
10.8°
3
Windvlaag: 6 m/s
59%
07:00
14°
1008.8 hPa
21%
11.1°
3
Windvlaag: 5.4 m/s
45%
08:00
15°
1008.9 hPa
21%
11.4°
3
Windvlaag: 6 m/s
82%
09:00
16°
1008.9 hPa
21%
11.6°
3
Windvlaag: 5.2 m/s
95%
10:00
17°
1008.5 hPa 1.1 mm
21%
11.5°
3
Windvlaag: 5.8 m/s
92%
11:00
18°
1008.0 hPa 1.1 mm
26%
10.5°
3
Windvlaag: 4.7 m/s
84%
12:00
19°
1007.6 hPa
55%
10.0°
4
Windvlaag: 4.7 m/s
76%
13:00
21°
1006.8 hPa
87%
10.7°
4
Windvlaag: 6.3 m/s
92%
14:00
22°
1006.0 hPa
32%
10.6°
4
Windvlaag: 7.7 m/s
74%
15:00
22°
1005.2 hPa 1.3 mm
21%
10.7°
5
Windvlaag: 8.4 m/s
76%
16:00
22°
1005.0 hPa 1.3 mm
31%
9.7°
5
Windvlaag: 7.6 m/s
85%
17:00
22°
1004.4 hPa 1.1 mm
21%
9.1°
4
Windvlaag: 7.3 m/s
48%
18:00
22°
1004.0 hPa
26%
9.7°
3
Windvlaag: 5.4 m/s
41%
19:00
21°
1003.9 hPa 1.9 mm
100%
9.3°
4
Windvlaag: 5.4 m/s
82%
20:00
20°
1003.7 hPa
27%
10.3°
3
Windvlaag: 3.7 m/s
50%
21:00
18°
1003.6 hPa 2.5 mm
21%
15.4°
4
Windvlaag: 5.5 m/s
78%
22:00
17°
1003.9 hPa 5.6 mm
21%
16.2°
5
Windvlaag: 6.4 m/s
76%
23:00
16°
1004.1 hPa 7.0 mm
21%
15.8°
5
Windvlaag: 1.5 m/s
81%
 05:57     21:26    Daglengte: 15:29 Zaterdag 31 Jul
00:00
16°
1004.1 hPa 6.4 mm
21%
15.4°
5
Windvlaag: 2.5 m/s
42%
01:00
15°
1004.2 hPa
21%
14.7°
6
Windvlaag: 1.9 m/s
58%
02:00
15°
1004.2 hPa
21%
14.6°
5
Windvlaag: 1.4 m/s
51%
03:00
16°
1003.6 hPa
21%
14.7°
7
Windvlaag: 9.8 m/s
19%
04:00
15°
1003.6 hPa
21%
13.7°
6
Windvlaag: 9.1 m/s
32%
05:00
15°
1003.3 hPa
24%
13.9°
6
Windvlaag: 11 m/s
71%
06:00
15°
1003.5 hPa
24%
14.3°
6
Windvlaag: 7.4 m/s
50%
07:00
15°
1003.9 hPa
22%
14.1°
6
Windvlaag: 7.3 m/s
66%
Temp/Neerslag /Baro Onweer/Dauwpunt
    Temp Baro Neerslag Dauwpunt Wind Bewolking  
 05:53     21:31    Daglengte: 15:38 Vandaag
08:00
16°
1009.2 hPa   14.8°
5
81%
11:00
19°
1009.0 hPa   13.4°
6
20%
14:00
21°
1008.8 hPa   12.3°
8
46%
17:00
20°
1008.7 hPa   12.4°
8
17%
20:00
19°
1009.0 hPa   12.8°
5
10%
23:00
17°
1009.1 hPa   12.1°
5
7%
 05:54     21:29    Daglengte: 15:35 Morgen
02:00
16°
1008.6 hPa   11.0°
6
25%
05:00
15°
1008.5 hPa   10.9°
6
46%
08:00
15°
1009.3 hPa   11.6°
7
14%
11:00
17°
1010.1 hPa   11.0°
8
18%
14:00
19°
1010.4 hPa   11.5°
8
18%
17:00
20°
1010.3 hPa   14.2°
7
9%
20:00
18°
1010.3 hPa   12.5°
5
20%
23:00
15°
1010.6 hPa   11.7°
3
39%
 05:56     21:27    Daglengte: 15:31 Vrijdag 30 Jul
02:00
15°
1010.2 hPa   10.0°
4
44%
05:00
14°
1008.7 hPa   10.0°
3
50%
08:00
15°
1008.9 hPa   11.4°
3
82%
11:00
18°
1008.0 hPa 2.2 mm 10.5°
3
84%
14:00
22°
1006.0 hPa   10.6°
4
74%
17:00
22°
1004.4 hPa 3.7 mm 9.1°
4
48%
20:00
20°
1003.7 hPa 1.9 mm 10.3°
3
50%
23:00
16°
1004.1 hPa 15.1 mm 15.8°
5
81%
 05:57     21:26    Daglengte: 15:29 Zaterdag 31 Jul
02:00
15°
1004.2 hPa 6.4 mm 14.6°
5
51%
05:00
15°
1003.3 hPa   13.9°
6
71%
08:00
16°
1004.2 hPa   14.2°
7
74%
11:00
17°
1006.4 hPa 4.6 mm 14.2°
8
1%
14:00
18°
1007.6 hPa 5.1 mm 13.8°
7
1%
17:00
19°
1008.4 hPa 7.0 mm 14.6°
7
1%
20:00
17°
1008.9 hPa 8.4 mm 14.4°
4
1%
23:00
14°
1009.5 hPa 8.7 mm 12.8°
3
0%
 05:59     21:24    Daglengte: 15:25 Zondag 01 Aug
02:00
13°
1008.8 hPa 8.7 mm 11.7°
3
0%
05:00
12°
1007.9 hPa 8.7 mm 11.2°
4
0%
08:00
13°
1007.8 hPa 8.7 mm 12.2°
5
0%
11:00
17°
1007.9 hPa 8.8 mm 13.6°
6
1%
14:00
19°
1008.0 hPa 11.2 mm 14.8°
6
1%
17:00
19°
1009.2 hPa 13.3 mm 13.9°
5
1%
20:00
17°
1010.2 hPa 13.5 mm 12.4°
4
1%
23:00
12°
1011.9 hPa 13.5 mm 9.8°
2
0%
 06:01     21:22    Daglengte: 15:21 Maandag 02 Aug
02:00
11°
1012.4 hPa 13.5 mm 9.1°
2
0%
05:00
10°
1012.6 hPa 13.5 mm 8.8°
2
0%
08:00
13°
1013.5 hPa 13.5 mm 10.4°
1
0%
11:00
18°
1014.0 hPa 13.5 mm 10.8°
2
0%
14:00
20°
1013.8 hPa 13.5 mm 9.8°
3
0%
17:00
20°
1013.6 hPa 13.5 mm 9.9°
3
1%
20:00
17°
1013.9 hPa 13.5 mm 11.4°
3
0%
23:00
12°
1015.2 hPa 13.5 mm 9.4°
2
0%
 06:02     21:21    Daglengte: 15:19 Dinsdag 03 Aug
02:00
11°
1015.5 hPa 13.5 mm 8.9°
1
0%
05:00
10°
1015.1 hPa 13.5 mm 8.4°
1
1%
08:00
13°
1015.8 hPa 13.5 mm 9.9°
0
1%
11:00
18°
1015.8 hPa 13.5 mm 10.4°
1
0%
14:00
21°
1014.7 hPa 13.5 mm 9.7°
1
0%
17:00
21°
1013.8 hPa 13.5 mm 9.0°
1
0%
20:00
19°
1013.4 hPa 13.5 mm 12.2°
2
0%
23:00
15°
1014.1 hPa 13.5 mm 9.0°
3
1%
 06:04     21:19    Daglengte: 15:15 Woensdag 04 Aug
02:00
13°
1013.5 hPa 13.5 mm 8.5°
3
1%
05:00
12°
1012.3 hPa   9.2°
3
0%
08:00
15°
1011.9 hPa 27.1 mm 11.4°
2
0%
14:00
23°
1009.8 hPa 27.9 mm 13.8°
3
1%
20:00
16°
1007.7 hPa 38.7 mm 15.8°
0
1%
 06:05     21:17    Daglengte: 15:12 Donderdag 05 Aug
02:00
14°
1006.0 hPa 58.7 mm 13.5°
5
1%
08:00
14°
1005.9 hPa 59.1 mm 12.9°
4
0%
14:00
21°
1005.5 hPa 59.1 mm 11.7°
5
1%
20:00
17°
1004.6 hPa 61.5 mm 14.7°
4
1%
 06:07     21:15    Daglengte: 15:08 Vrijdag 06 Aug
02:00
14°
1004.4 hPa 63.8 mm 13.0°
3
1%
08:00
14°
1003.8 hPa 63.8 mm 12.5°
4
1%
14:00
21°
1001.9 hPa 64.5 mm 13.9°
5
1%
20:00
16°
1000.1 hPa 77.4 mm 14.3°
4
1%
 06:08     21:13    Daglengte: 15:05 Zaterdag 07 Aug
02:00
14°
1007.9 hPa 0.6 mm 12.2°
3
63%
08:00
15°
1008.2 hPa 0.4 mm 12.6°
4
59%
14:00
20°
1009.1 hPa 0.9 mm 13.7°
5
65%
20:00
18°
1009.8 hPa 2.1 mm 14.2°
3
70%
 06:10     21:12    Daglengte: 15:02 Zondag 08 Aug
02:00
14°
1011.3 hPa 0.4 mm 11.9°
3
66%
08:00
14°
1011.3 hPa 0.5 mm 12.5°
4
65%
14:00
19°
1012.1 hPa 1.1 mm 13.5°
5
71%
20:00
18°
1012.6 hPa 1.4 mm 13.7°
3
70%
 06:12     21:10    Daglengte: 14:58 Maandag 09 Aug
02:00
14°
1013.9 hPa 0.4 mm 11.9°
3
53%
08:00
15°
1014.5 hPa 0.2 mm 12.6°
3
59%
14:00
20°
1015.6 hPa 0.6 mm 13.3°
4
66%
20:00
18°
1015.7 hPa 1.2 mm 13.7°
2
60%
 06:13     21:08    Daglengte: 14:55 Dinsdag 10 Aug
02:00
14°
1016.8 hPa 0.9 mm 12.0°
3
51%
08:00
14°
1017.4 hPa 0.4 mm 12.1°
3
55%
14:00
20°
1018.4 hPa 0.3 mm 13.0°
4
58%
20:00
18°
1018.5 hPa 1.6 mm 13.4°
2
60%
 06:15     21:06    Daglengte: 14:51 Woensdag 11 Aug
02:00
14°
1019.3 hPa 0.4 mm 11.3°
2
45%
08:00
15°
1019.2 hPa 0.1 mm 12.0°
2
51%
14:00
21°
1019.1 hPa 0.8 mm 13.3°
3
58%
20:00
19°
1018.5 hPa 0.7 mm 13.9°
1
56%
 06:16     21:04    Daglengte: 14:48 Donderdag 12 Aug
02:00
14°
1018.9 hPa 0.2 mm 11.5°
1
44%
  CAPE Lifted Index Hail Supercell Tornado SRH 3km CL BTM PRES CL TOP PRES Swiss DWD icon SMHI TS
 05:53     21:31    Daglengte: 15:38 Vandaag
08:00 0 J/kg 1.1 K 0 % 0 % 0 % 0 m²/s² 0 0 2.78 3
09:00 17 J/kg 2.0 K 0 % 0 % 0 % 0 m²/s² 0 0 3.56 3
10:00 36 J/kg 1.5 K 0 % 0 % 0 % 0 m²/s² 0 0 3 2
11:00 45 J/kg 1.4 K 0 % 0 % 0 % 0 m²/s² 0 0 3.86 2
12:00 65 J/kg 1.1 K 0 % 0 % 0 % 0 m²/s² 0 0 3.89 2
13:00 58 J/kg 1.6 K 0 % 0 % 0 % 0 m²/s² 0 0 3.94 2
14:00 101 J/kg 0.8 K 0 % 0 % 0 % 0 m²/s² 0 0 3.14 3
15:00 168 J/kg 0.3 K 0 % 0 % 0 % 0 m²/s² 0 0 3.06 2
16:00 189 J/kg 0.0 K 0 % 0 % 0 % 0 m²/s² 0 0 3.33 3
17:00 155 J/kg 0.3 K 0 % 0 % 0 % 0 m²/s² 0 0 3.21 2
18:00 204 J/kg 0.2 K 0 % 0 % 0 % 0 m²/s² 0 0 2.66 2
19:00 255 J/kg 0.1 K 0 % 0 % 0 % 0 m²/s² 0 0 1.6 2
20:00 345 J/kg 0.0 K 0 % 0 % 0 % 0 m²/s² 0 0 2.82 1
21:00 183 J/kg 1.5 K 0 % 0 % 0 % 0 m²/s² 0 0 2.73 2
22:00 95 J/kg 3.2 K 0 % 0 % 0 % 0 m²/s² 0 0 6.59 2
23:00 89 J/kg 3.7 K 0 % 0 % 0 % 0 m²/s² 0 0 6.22 2
 05:54     21:29    Daglengte: 15:35 Morgen
00:00 110 J/kg 4.0 K 0 % 0 % 0 % 0 m²/s² 0 0 8.65 2
01:00 37 J/kg 5.7 K 0 % 0 % 0 % 0 m²/s² 0 0 11.25 2
02:00 12 J/kg 6.7 K 0 % 0 % 0 % 0 m²/s² 0 0 12.4 2
03:00 1 J/kg 7.2 K 0 % 0 % 0 % 0 m²/s² 0 0 12.9 2
04:00 0 J/kg 7.0 K 0 % 0 % 0 % 0 m²/s² 0 0 13.24 2
05:00 0 J/kg 7.1 K 0 % 0 % 0 % 0 m²/s² 0 0 13.31 3
06:00 12 J/kg 7.3 K 0 % 0 % 0 % 0 m²/s² 0 0 13.3 3
07:00 48 J/kg 7.5 K 0 % 0 % 0 % 0 m²/s² 0 0 11.85 3
08:00 101 J/kg 7.9 K 0 % 0 % 0 % 0 m²/s² 0 0 12.88 2
09:00 188 J/kg 6.9 K 0 % 0 % 0 % 0 m²/s² 0 0 11.61 2
10:00 192 J/kg 6.9 K 0 % 0 % 0 % 0 m²/s² 0 0 11.25 2
11:00 141 J/kg 6.8 K 0 % 0 % 0 % 0 m²/s² 0 0 10.16 2
12:00 174 J/kg 6.3 K 0 % 0 % 0 % 0 m²/s² 0 0 11.97 2
13:00 114 J/kg 6.7 K 0 % 0 % 0 % 0 m²/s² 0 0 12.37 2
14:00 152 J/kg 5.8 K 0 % 0 % 0 % 0 m²/s² 0 0 10.87 2
15:00 125 J/kg 5.7 K 0 % 0 % 0 % 0 m²/s² 0 0 10.77 1
16:00 87 J/kg 6.1 K 0 % 0 % 0 % 0 m²/s² 0 0 10.78 2
17:00 116 J/kg 4.9 K 0 % 0 % 0 % 0 m²/s² 0 0 9.37 2
18:00 108 J/kg 4.7 K 0 % 0 % 0 % 0 m²/s² 0 0 8.84 2
19:00 80 J/kg 4.7 K 0 % 0 % 0 % 0 m²/s² 0 0 9.08 2
20:00 39 J/kg 5.1 K 0 % 0 % 0 % 0 m²/s² 0 0 10.2 2
21:00 3 J/kg 5.9 K 0 % 0 % 0 % 0 m²/s² 0 0 11.78 3
22:00 0 J/kg 6.5 K 0 % 0 % 0 % 0 m²/s² 0 0 12.95 3
23:00 0 J/kg 7.3 K 0 % 0 % 0 % 0 m²/s² 0 0 14.41 3
 05:56     21:27    Daglengte: 15:31 Vrijdag 30 Jul
00:00 0 J/kg 7.4 K 0 % 0 % 0 % 0 m²/s² 0 0 14.3 2
01:00 0 J/kg 7.1 K 0 % 0 % 0 % 0 m²/s² 0 0 13.37 3
02:00 0 J/kg 5.6 K 0 % 0 % 0 % 0 m²/s² 0 0 11.24 2
03:00 0 J/kg 5.7 K 0 % 0 % 0 % 0 m²/s² 0 0 10.89 3
04:00 0 J/kg 5.1 K 0 % 0 % 0 % 0 m²/s² 0 0 9.78 2
05:00 0 J/kg 5.0 K 0 % 0 % 0 % 0 m²/s² 0 0 9.71 2
06:00 0 J/kg 5.0 K 0 % 0 % 0 % 0 m²/s² 0 0 9.71 3
07:00 0 J/kg 5.6 K 0 % 0 % 0 % 0 m²/s² 0 0 10.19 3
08:00 0 J/kg 5.4 K 0 % 0 % 0 % 0 m²/s² 0 0 9.42 3
09:00 0 J/kg 6.1 K 0 % 0 % 0 % 0 m²/s² 0 0 9.37 3
10:00 0 J/kg 5.1 K 0 % 0 % 0 % 0 m²/s² 0 0 8.67 3
11:00 0 J/kg 5.2 K 0 % 0 % 0 % 0 m²/s² 0 0 7.63 3
12:00 2 J/kg 4.8 K 0 % 0 % 0 % 0 m²/s² 0 0 6.09 3
13:00 2 J/kg 4.7 K 0 % 0 % 0 % 0 m²/s² 0 0 5.9 3
14:00 0 J/kg 3.6 K 0 % 0 % 0 % 0 m²/s² 0 0 5.43 3
15:00 3 J/kg 3.5 K 0 % 0 % 0 % 0 m²/s² 0 0 4.73 3
16:00 2 J/kg 3.4 K 0 % 0 % 0 % 0 m²/s² 0 0 4.3 3
17:00 0 J/kg 3.1 K 0 % 0 % 0 % 0 m²/s² 0 0 4 2
18:00 0 J/kg 2.4 K 0 % 0 % 0 % 0 m²/s² 0 0 3.33 2
19:00 0 J/kg 1.7 K 0 % 0 % 0 % 0 m²/s² 0 0 2.63 2
20:00 0 J/kg 1.1 K 0 % 0 % 0 % 0 m²/s² 0 0 1.91 2
21:00 0 J/kg 0.8 K 0 % 0 % 0 % 0 m²/s² 0 0 1.16 2
22:00 0 J/kg -0.8 K 0 % 0 % 0 % 0 m²/s² 0 0 -0.8 1
23:00 0 J/kg -0.3 K 0 % 0 % 0 % 0 m²/s² 0 0 0.69 2
 05:57     21:26    Daglengte: 15:29 Zaterdag 31 Jul
00:00 0 J/kg -1.1 K 0 % 0 % 0 % 0 m²/s² 0 0 6.28 2
01:00 0 J/kg -0.9 K 0 % 0 % 0 % 0 m²/s² 0 0 2.64 2
02:00 26 J/kg -0.6 K 0 % 0 % 0 % 0 m²/s² 0 0 1.8 3
03:00 146 J/kg 0.0 K 0 % 0 % 0 % 0 m²/s² 0 0 2.04 2
04:00 0 J/kg 1.0 K 0 % 0 % 0 % 0 m²/s² 0 0 2.38 2
05:00 0 J/kg 0.9 K 0 % 0 % 0 % 0 m²/s² 0 0 2.94 3
06:00 11 J/kg 1.3 K 0 % 0 % 0 % 0 m²/s² 0 0 2.38 3
07:00 41 J/kg 1.5 K 0 % 0 % 0 % 0 m²/s² 0 0 2.25 3
Temp Baro Wind Neerslag
  EWN Forecast EWN WRFDA DWD ICON FMI HIRLAM MET Norway GFS
 05:53     21:31    Daglengte: 15:38 Vandaag
08:00 16.3° 1009.2 hPa 4.7 m/s 0.0 mm 16.1° 1008.7 hPa 5.7 m/s 0.0 mm 16.7° 1009.2 hPa 4.8 m/s -2.0 mm 16.0° 1009.3 hPa 4.6 m/s 0.0 mm 15.6° 1009.3 hPa 5.5 m/s
11:00 19.1° 1009.0 hPa 6.3 m/s 0.0 mm 20.0° 1008.4 hPa 7.0 m/s 0.0 mm 19.1° 1009.3 hPa 6.6 m/s 0.0 mm 19.5° 1009.0 hPa 6.2 m/s 0.0 mm 19.4° 1009.1 hPa 8.0 m/s
14:00 20.6° 1008.8 hPa 7.6 m/s 0.0 mm 21.5° 1008.0 hPa 7.7 m/s 0.0 mm 20.6° 1009.1 hPa 7.6 m/s 0.0 mm 20.7° 1009.0 hPa 7.1 m/s 0.0 mm 20.1° 1008.9 hPa 8.2 m/s
17:00 20.4° 1008.7 hPa 7.5 m/s 0.0 mm 22.4° 1007.6 hPa 8.0 m/s 0.0 mm 21.8° 1008.9 hPa 7.4 m/s 0.0 mm 20.0° 1008.9 hPa 7.9 m/s 0.0 mm 20.6° 1009.2 hPa 8.4 m/s
20:00 18.6° 1009.0 hPa 5.4 m/s 0.0 mm 19.4° 1007.8 hPa 5.4 m/s 1.2 mm 19.5° 1009.1 hPa 4.3 m/s 0.0 mm 18.4° 1009.5 hPa 5.7 m/s 0.0 mm 18.5° 1009.2 hPa 6.2 m/s
23:00 16.6° 1009.1 hPa 5.2 m/s 0.0 mm 15.7° 1008.3 hPa 5.6 m/s 7.1 mm 17.0° 1009.0 hPa 3.8 m/s 0.0 mm 16.8° 1009.9 hPa 5.2 m/s 0.0 mm 16.7° 1009.3 hPa 6.4 m/s
 05:54     21:29    Daglengte: 15:35 Morgen
02:00 15.6° 1008.6 hPa 6.1 m/s 0.0 mm 14.3° 1008.1 hPa 6.2 m/s 7.1 mm 15.8° 1008.7 hPa 4.7 m/s 0.0 mm 16.6° 1009.0 hPa 6.2 m/s 0.0 mm 15.6° 1009.0 hPa 7.2 m/s
05:00 14.9° 1008.5 hPa 6.2 m/s 0.0 mm 12.7° 1007.2 hPa 5.4 m/s 7.1 mm 15.2° 1008.9 hPa 5.8 m/s 0.0 mm 15.6° 1008.7 hPa 6.3 m/s 0.0 mm 13.8° 1008.8 hPa 7.2 m/s
08:00 15.1° 1009.3 hPa 6.9 m/s 0.0 mm 14.2° 1007.8 hPa 6.9 m/s 7.4 mm 15.3° 1009.5 hPa 6.4 m/s 0.0 mm 15.5° 1009.5 hPa 6.8 m/s 0.0 mm 14.1° 1009.4 hPa 7.4 m/s
11:00 17.5° 1010.1 hPa 7.8 m/s 0.0 mm 16.5° 1008.5 hPa 8.0 m/s 8.1 mm 17.9° 1010.3 hPa 7.8 m/s 0.0 mm 17.7° 1010.6 hPa 7.3 m/s 0.0 mm 17.5° 1009.9 hPa 9.3 m/s
14:00 18.9° 1010.4 hPa 7.8 m/s 0.0 mm 19.1° 1008.9 hPa 8.4 m/s 9.1 mm 19.9° 1010.3 hPa 8.3 m/s 0.0 mm 17.9° 1011.1 hPa 6.3 m/s 0.0 mm 19.4° 1009.8 hPa 8.5 m/s
17:00 19.7° 1010.3 hPa 7.2 m/s 0.0 mm 20.5° 1008.5 hPa 7.5 m/s 9.1 mm 20.8° 1010.4 hPa 7.5 m/s 0.0 mm 17.4° 1010.9 hPa 5.2 m/s 0.0 mm 20.1° 1009.7 hPa 7.3 m/s
20:00 18.5° 1010.3 hPa 4.8 m/s 0.0 mm 20.0° 1008.7 hPa 5.9 m/s 9.1 mm 19.0° 1010.3 hPa 4.6 m/s 0.0 mm 17.7° 1011.5 hPa 4.1 m/s 0.0 mm 17.2° 1010.0 hPa 5.3 m/s
23:00 15.4° 1010.6 hPa 3.3 m/s 0.0 mm 13.9° 1008.9 hPa 3.7 m/s 9.1 mm 15.5° 1010.5 hPa 2.9 m/s 0.0 mm 15.1° 1012.4 hPa 3.3 m/s 0.0 mm 13.0° 1010.4 hPa 3.8 m/s
 05:56     21:27    Daglengte: 15:31 Vrijdag 30 Jul
02:00 14.6° 1010.2 hPa 4.1 m/s 0.0 mm 13.2° 1008.8 hPa 5.1 m/s 9.1 mm 14.2° 1010.1 hPa 3.1 m/s 0.0 mm 15.8° 1012.2 hPa 4.7 m/s 0.0 mm 12.0° 1010.5 hPa 4.6 m/s
05:00 13.6° 1008.7 hPa 3.4 m/s 0.0 mm 11.6° 1008.6 hPa 5.0 m/s 9.1 mm 13.8° 1009.2 hPa 3.2 m/s 0.0 mm 11.1° 1010.3 hPa 4.8 m/s
08:00 14.6° 1008.9 hPa 3.0 m/s 0.0 mm 13.8° 1009.5 hPa 5.4 m/s 9.1 mm 15.0° 1009.1 hPa 2.7 m/s 0.0 mm 13.1° 1010.3 hPa 5.7 m/s
11:00 18.3° 1008.0 hPa 3.4 m/s 2.2 mm 19.1° 1008.9 hPa 5.6 m/s 9.1 mm 18.8° 1008.3 hPa 3.4 m/s 0.0 mm 17.9° 1010.5 hPa 6.5 m/s
14:00 21.8° 1006.0 hPa 4.1 m/s 0.0 mm 21.6° 1008.6 hPa 5.0 m/s 9.1 mm 22.1° 1006.2 hPa 3.8 m/s 0.0 mm 20.5° 1009.8 hPa 5.5 m/s
17:00 22.0° 1004.4 hPa 3.7 m/s 3.7 mm 22.8° 1007.0 hPa 3.3 m/s 9.1 mm 22.9° 1004.5 hPa 5.8 m/s 0.0 mm 21.7° 1008.5 hPa 4.1 m/s
20:00 20.4° 1003.7 hPa 3.0 m/s 1.9 mm 22.3° 1004.1 hPa 2.0 m/s 9.1 mm 20.7° 1004.2 hPa 5.9 m/s 0.1 mm 19.1° 1007.0 hPa 2.4 m/s
23:00 16.5° 1004.1 hPa 4.8 m/s 15.1 mm 14.6° 1004.2 hPa 4.6 m/s 41.0 mm 16.8° 1004.6 hPa 5.6 m/s 0.0 mm 16.0° 1005.7 hPa 3.0 m/s
 05:57     21:26    Daglengte: 15:29 Zaterdag 31 Jul
02:00 15.2° 1004.2 hPa 5.4 m/s 6.4 mm 15.2° 1002.9 hPa 2.9 m/s 56.7 mm 15.8° 1004.1 hPa 7.0 m/s 0.0 mm 14.2° 1005.2 hPa 4.2 m/s
05:00 14.9° 1003.3 hPa 6.2 m/s 0.0 mm 13.5° 1001.8 hPa 5.4 m/s 57.4 mm 15.2° 1003.7 hPa 6.4 m/s 0.0 mm 13.9° 1003.4 hPa 7.0 m/s
08:00 15.7° 1004.2 hPa 7.4 m/s 0.0 mm 15.4° 1004.0 hPa 5.2 m/s 57.7 mm 15.7° 1004.3 hPa 7.9 m/s 0.0 mm 14.9° 1004.5 hPa 6.2 m/s
11:00 17.0° 1006.4 hPa 7.9 m/s 4.6 mm 17.0° 1006.4 hPa 7.9 m/s 4.6 mm
14:00 17.8° 1007.6 hPa 6.6 m/s 5.1 mm 17.8° 1007.6 hPa 6.6 m/s 5.1 mm
17:00 18.6° 1008.4 hPa 7.4 m/s 7.0 mm 18.6° 1008.4 hPa 7.4 m/s 7.0 mm
20:00 17.0° 1008.9 hPa 4.4 m/s 8.4 mm 17.0° 1008.9 hPa 4.4 m/s 8.4 mm
23:00 13.7° 1009.5 hPa 3.0 m/s 8.7 mm 13.7° 1009.5 hPa 3.0 m/s 8.7 mm
 05:59     21:24    Daglengte: 15:25 Zondag 01 Aug
02:00 12.5° 1008.8 hPa 3.5 m/s 8.7 mm 12.5° 1008.8 hPa 3.5 m/s 8.7 mm
05:00 11.8° 1007.9 hPa 4.4 m/s 8.7 mm 11.8° 1007.9 hPa 4.4 m/s 8.7 mm
08:00 13.2° 1007.8 hPa 5.5 m/s 8.7 mm 13.2° 1007.8 hPa 5.5 m/s 8.7 mm
11:00 17.3° 1007.9 hPa 6.4 m/s 8.8 mm 17.3° 1007.9 hPa 6.4 m/s 8.8 mm
14:00 19.5° 1008.0 hPa 6.5 m/s 11.2 mm 19.5° 1008.0 hPa 6.5 m/s 11.2 mm
17:00 18.8° 1009.2 hPa 5.4 m/s 13.3 mm 18.8° 1009.2 hPa 5.4 m/s 13.3 mm
20:00 16.8° 1010.2 hPa 3.6 m/s 13.5 mm 16.8° 1010.2 hPa 3.6 m/s 13.5 mm
23:00 12.0° 1011.9 hPa 1.9 m/s 13.5 mm 12.0° 1011.9 hPa 2.0 m/s 13.5 mm
 06:01     21:22    Daglengte: 15:21 Maandag 02 Aug
02:00 10.9° 1012.4 hPa 1.8 m/s 13.5 mm 10.9° 1012.4 hPa 1.8 m/s 13.5 mm
05:00 10.3° 1012.6 hPa 1.7 m/s 13.5 mm 10.3° 1012.6 hPa 1.7 m/s 13.5 mm
08:00 13.2° 1013.5 hPa 1.3 m/s 13.5 mm 13.2° 1013.5 hPa 1.3 m/s 13.5 mm
11:00 17.6° 1014.0 hPa 2.2 m/s 13.5 mm 17.6° 1014.0 hPa 2.2 m/s 13.5 mm
14:00 19.6° 1013.8 hPa 3.3 m/s 13.5 mm 19.6° 1013.8 hPa 3.3 m/s 13.5 mm
17:00 19.7° 1013.6 hPa 3.3 m/s 13.5 mm 19.7° 1013.6 hPa 3.3 m/s 13.5 mm
20:00 17.0° 1013.9 hPa 3.3 m/s 13.5 mm 17.0° 1013.9 hPa 3.3 m/s 13.5 mm
23:00 12.0° 1015.2 hPa 2.0 m/s 13.5 mm 12.0° 1015.2 hPa 2.0 m/s 13.5 mm
 06:02     21:21    Daglengte: 15:19 Dinsdag 03 Aug
02:00 10.8° 1015.5 hPa 1.3 m/s 13.5 mm 10.8° 1015.5 hPa 1.3 m/s 13.5 mm
05:00 10.2° 1015.1 hPa 1.1 m/s 13.5 mm 10.2° 1015.1 hPa 1.1 m/s 13.5 mm
08:00 13.1° 1015.8 hPa 0.4 m/s 13.5 mm 13.1° 1015.8 hPa 0.4 m/s 13.5 mm
11:00 17.9° 1015.8 hPa 1.1 m/s 13.5 mm 17.9° 1015.8 hPa 1.0 m/s 13.5 mm
14:00 20.8° 1014.7 hPa 1.1 m/s 13.5 mm 20.8° 1014.7 hPa 1.1 m/s 13.5 mm
17:00 21.5° 1013.8 hPa 1.3 m/s 13.5 mm 21.5° 1013.8 hPa 1.3 m/s 13.5 mm
20:00 18.8° 1013.4 hPa 2.4 m/s 13.5 mm 18.8° 1013.4 hPa 2.4 m/s 13.5 mm
23:00 14.8° 1014.1 hPa 3.0 m/s 13.5 mm 14.8° 1014.1 hPa 3.0 m/s 13.5 mm
 06:04     21:19    Daglengte: 15:15 Woensdag 04 Aug
02:00 13.4° 1013.5 hPa 3.3 m/s 13.5 mm 13.4° 1013.5 hPa 3.3 m/s 13.5 mm
05:00 12.4° 1012.3 hPa 3.2 m/s 13.5 mm 12.4° 1012.3 hPa 3.2 m/s 13.5 mm
08:00 15.0° 1011.9 hPa 2.4 m/s 13.5 mm 15.0° 1011.9 hPa 2.4 m/s 13.5 mm
14:00 22.6° 1009.8 hPa 3.1 m/s 14.4 mm 22.6° 1009.8 hPa 3.1 m/s 14.4 mm
20:00 16.4° 1007.7 hPa 0.2 m/s 24.3 mm 16.4° 1007.7 hPa 0.2 m/s 24.3 mm
 06:05     21:17    Daglengte: 15:12 Donderdag 05 Aug
02:00 14.2° 1006.0 hPa 4.6 m/s 29.6 mm 14.2° 1006.0 hPa 4.6 m/s 29.6 mm
08:00 14.3° 1005.9 hPa 4.5 m/s 29.6 mm 14.3° 1005.9 hPa 4.5 m/s 29.6 mm
14:00 20.7° 1005.5 hPa 5.3 m/s 29.6 mm 20.7° 1005.5 hPa 5.3 m/s 29.6 mm
20:00 17.3° 1004.6 hPa 4.2 m/s 31.9 mm 17.3° 1004.6 hPa 4.2 m/s 31.9 mm
 06:07     21:15    Daglengte: 15:08 Vrijdag 06 Aug
02:00 13.8° 1004.4 hPa 2.9 m/s 31.9 mm 13.8° 1004.4 hPa 2.9 m/s 31.9 mm
08:00 14.0° 1003.8 hPa 4.0 m/s 31.9 mm 14.0° 1003.8 hPa 4.0 m/s 31.9 mm
14:00 21.1° 1001.9 hPa 5.4 m/s 32.6 mm 21.1° 1001.9 hPa 5.4 m/s 32.6 mm
20:00 16.0° 1000.1 hPa 4.3 m/s 43.7 mm 16.0° 1000.1 hPa 4.3 m/s 43.7 mm
 06:08     21:13    Daglengte: 15:05 Zaterdag 07 Aug
02:00 14.1° 1007.9 hPa 2.7 m/s 0.6 mm
08:00 14.5° 1008.2 hPa 3.6 m/s 0.4 mm
14:00 19.9° 1009.1 hPa 4.7 m/s 0.9 mm
20:00 18.0° 1009.8 hPa 3.1 m/s 2.1 mm
 06:10     21:12    Daglengte: 15:02 Zondag 08 Aug
02:00 14.0° 1011.3 hPa 2.8 m/s 0.4 mm
08:00 14.4° 1011.3 hPa 4.0 m/s 0.5 mm
14:00 19.4° 1012.1 hPa 5.0 m/s 1.1 mm
20:00 18.0° 1012.6 hPa 2.8 m/s 1.4 mm
 06:12     21:10    Daglengte: 14:58 Maandag 09 Aug
02:00 14.2° 1013.9 hPa 2.7 m/s 0.4 mm
08:00 14.7° 1014.5 hPa 3.3 m/s 0.2 mm
14:00 20.5° 1015.6 hPa 4.2 m/s 0.6 mm
20:00 18.1° 1015.7 hPa 2.1 m/s 1.2 mm
 06:13     21:08    Daglengte: 14:55 Dinsdag 10 Aug
02:00 14.0° 1016.8 hPa 2.5 m/s 0.9 mm
08:00 14.4° 1017.4 hPa 2.7 m/s 0.4 mm
14:00 20.4° 1018.4 hPa 3.8 m/s 0.3 mm
20:00 18.3° 1018.5 hPa 2.2 m/s 1.6 mm
 06:15     21:06    Daglengte: 14:51 Woensdag 11 Aug
02:00 13.8° 1019.3 hPa 1.9 m/s 0.4 mm
08:00 14.6° 1019.2 hPa 2.2 m/s 0.1 mm
14:00 20.8° 1019.1 hPa 3.3 m/s 0.8 mm
20:00 18.7° 1018.5 hPa 1.5 m/s 0.7 mm
 06:16     21:04    Daglengte: 14:48 Donderdag 12 Aug
02:00 13.8° 1018.9 hPa 1.3 m/s 0.2 mm
FMI Hirlam - 7.5 km EWN WRFDA - 12 km DWD ICON - 7 km GFS - 25 km Basiskaart






























































Updatetijd (Europe/Amsterdam) Resolutie Lengte Stap
FMI Hirlam 07:00, 13:00, 19:00, 01:00 7.5 km 49h 1h
EWN WRFDA 05:30, 11:30, 17:30, 23:30 12 km 73h 1h
DWD ICON 06:00, 12:00, 18:00, 00:00 7 km 75h 1h
GFS 02:15, 08:15, 14:15, 20:15 25 km 237h 3h
30+ mm
25-30 mm
20-25 mm
15-20 mm
10-15 mm
6-10 mm
4-6 mm
2-4 mm
1-2 mm
0.5-1 mm
0.2-0.5 mm
0.1-0.2 mm
30+ mm
25-30 mm
20-25 mm
15-20 mm
10-15 mm
6-10 mm
4-6 mm
2-4 mm
1-2 mm
0.5-1 mm
0.2-0.5 mm
0.1-0.2 mm
Sneeuwval
Natte sneeuw
Hagel
Vorst
30+ mm
25-30 mm
20-25 mm
15-20 mm
10-15 mm
6-10 mm
4-6 mm
2-4 mm
1-2 mm
0.5-1 mm
0.2-0.5 mm
0.1-0.2 mm
Sneeuwval
Natte sneeuw
Hagel
Vorst
Onweer
50 mm
40 mm
30 mm
26 mm
22 mm
18 mm
14 mm
10 mm
9 mm
8 mm
7 mm
6 mm
5 mm
4.5 mm
4 mm
3.5 mm
3 mm
2.5 mm
2 mm
1.5 mm
1 mm
0.8 mm
0.6 mm
0.4 mm
0.2 mm
0.05 mm
35°
30°
25°
20°
15°
10°
-5°
-10°
-15°
-20°
-25°
-30°
-35°
33> m/s
29 m/s
25 m/s
21 m/s
17 m/s
14 m/s
11 m/s
8 m/s
5 m/s
3 m/s
0 m/s
2600 J/kg
2400 J/kg
2200 J/kg
2000 J/kg
1800 J/kg
1600 J/kg
1400 J/kg
1200 J/kg
1000 J/kg
800 J/kg
600 J/kg
400 J/kg
200 J/kg
70 dBZ
65 dBZ
60 dBZ
55 dBZ
50 dBZ
45 dBZ
40 dBZ
35 dBZ
30 dBZ
25 dBZ
20 dBZ
15 dBZ
10 dBZ
5 dBZ
-1 K
-2 K
-3 K
-4 K
-5 K
-6 K
-7 K
-8 K
-9 K
950 m²/s²
900 m²/s²
850 m²/s²
800 m²/s²
750 m²/s²
700 m²/s²
650 m²/s²
600 m²/s²
550 m²/s²
500 m²/s²
450 m²/s²
400 m²/s²
350 m²/s²
300 m²/s²
250 m²/s²
200 m²/s²
150 m²/s²
100 m²/s²
46 m/s
44 m/s
42 m/s
40 m/s
38 m/s
36 m/s
34 m/s
32 m/s
30 m/s
28 m/s
26 m/s
24 m/s
22 m/s
20 m/s
16 m/s
12 m/s
8 m/s
4 m/s
30 m/s
28 m/s
26 m/s
24 m/s
22 m/s
20 m/s
18 m/s
16 m/s
14 m/s
12 m/s
10 m/s
8 m/s
6 m/s
4 m/s
2 m/s
3.0
2.8
2.6
2.4
2.2
2.0
1.8
1.6
1.4
1.2
1.0
0.8
0.6
0.4
0.2
15
14
13
12
11
10
9
8
7
6
5
4
3
2
1
90%
80%
70%
60%
50%
40%
30%
20%
10%
42
40
38
36
34
32
30
28
26
24
22
20
18
16
14
12
90+ cm
80-90 cm
70-80 cm
60-70 cm
50-60 cm
40-50 cm
30-40 cm
20-30 cm
10-20 cm
1-10 cm
Sneeuwval
Natte sneeuw
Regen
>120 mm
115 mm
110 mm
105 mm
100 mm
95 mm
90 mm
85 mm
80 mm
75 mm
70 mm
65 mm
60 mm
55 mm
50 mm
45 mm
45 mm
40 mm
35 mm
30 mm
25 mm
20 mm
15 mm
10 mm
5 mm
0.1 mm
960 hPa
880 hPa
800 hPa
720 hPa
640 hPa
560 hPa
584 gpdm
568 gpdm
552 gpdm
536 gpdm
520 gpdm
504 gpdm
488 gpdm
Extreem zwaar Noodweer Kans op onweer
15% 15% 5% 50% 15%

Dag




Kaart






</
35°
30°
25°
20°
15°
10°
-5°
-10°
-15°
-20°
-25°
-30°
-35°